SL-14 DEB, 45290

Orbit data source: Space-Track

SL-14 DEB, 45290 is space debris in LEO originally from a launch on Thu, 15 Aug 1991 UTC launched from the Plesetsk Missile And Space Complex (PKMTR). Debris objects in space refer to the collection of defunct objects orbiting the Earth. Examples of debris include non-operational satellites, rocket bodies, and fragments generated from explosions, collisions, or faulty payload assembly.

Loading next visibility...
Identifier
45290, 1991-056AC
Orbit
LEO
Last TLE update
13 hours ago
Origin
Manufacturer
Unknown
Mission
Spacecraft
Bus & Motor
Unknown
Mass
Unknown
Launch date (UTC)
1991-08-15 (34 years ago)
Launch vehicle
Unknown
Launch site
Plesetsk Missile And Space Complex (PKMTR)
Object type
Payload
Rocket body
Debris
Shape & HBR
Unknown
Radar Cross Section
Small (<0.1 m²)

Expand to show TLE details & history

TLE from 13 hours ago
0 SL-14 DEB
1 45290U 91056AC  25128.71903427  .00000641  00000-0  11128-2 0  9998
2 45290  82.6296  36.9712 0104616 249.9641 109.0209 13.40418652254192
Epoch: 2025-05-08T17:15Z
Definitive object data (Epoch: 2025-05-08T17:15:24.56Z)
Latitude
Longitude
-88.66663°
Altitude
1,136.82 km
Speed
7.272 km/s
True Right ascension
02h 27m 53s
True Declination
0° 00' 00"
Sunlit
Object was in daylight at TLE epoch
Visualization TLE readout
Latitude
9.88501°
Longitude
89.64153°
Altitude
1,093.463 km
Speed
7.314 km/s
Apparent Right ascension
13h 29m 12s
Apparent Declination
-47° 29' 43"
Sunlit
Object is in full shadow
Visualization observer readout
Local Sidereal Time
14:48:05
Azimuth
193.18° SSW
Elevation
0.846°
Doppler factor
1
Orbital elements
Apogee altitude
1,183.213 km
Perigee altitude
1,026.644 km
Semi-major axis
7,483.066 km
Eccentricity
0.0104616
Inclination
82.6296°
RAAN
36.9712°
Arg. of periapsis
249.9641°
True anomaly
110.14937°
Mean anomaly
109.0209°
Eccentric anomaly
109.58562°
Mean motion
3.35293 °/min
BSTAR
0.0011128
Orbital period
107.37 mins
Loading maneuver chart data...
Loading SW <> Apogee altitude chart data...
Loading historical data...
Loading historical data...
Loading historical data...
Loading historical data...
Loading historical data...
Loading historical data...
Loading historical data...

SL-14 DEB Visibility forecast

Observer location: undefined°, undefined°

Span
Click to sort rows by Start time (UTC) header in descending order
Start Az.
Max El. time (UTC)
Max El. Az.
Max El.
End time (UTC)
End Az.
4 mins2025-05-09 16:43:13.465Z95.097° ESE2025-05-09 16:45:13.465Z78.04° E12.49°2025-05-09 16:47:13.465Z60.94° ENE
12 mins2025-05-09 18:27:13.465Z180.512° SSW2025-05-09 18:32:13.465Z116.608° SE44.696°2025-05-09 18:39:13.465Z9.479° NNE
7 mins2025-05-09 20:18:13.465Z263.603° W2025-05-09 20:21:13.465Z291.344° WNW16.951°2025-05-09 20:25:13.465Z328.088° NNW
5 mins2025-05-10 03:56:13.465Z45.149° ENE2025-05-10 03:58:13.465Z64.106° ENE15.023°2025-05-10 04:01:13.465Z91.848° ESE
12 mins2025-05-10 05:42:13.465Z352.048° N2025-05-10 05:47:13.465Z337.087° NNW44.806°2025-05-10 05:54:13.465Z175.529° S
|